[[{"header":{"parameterUnit":"m.s-1","parameterCategory":1,"la1":30.2992,"la2":30.254,"lo1":-89.0895,"lo2":-89.0443,"dy":0.0025,"dx":0.0025,"nx":19,"ny":19,"refTime":"2026-05-03T09:00:00:Z","depth":0,"parameterNumber":2,"parameterNumberName":"U-component_of_WINDS"},"data":[0,0,0,-0.9316,-0.9318,-0.9441,-0.9441,-0.9589,-0.959,0,0,0,0,0,0,0,0,0,0,0,-0.9272,-0.9273,-0.9316,-0.9318,-0.944,-0.9441,-0.9589,-0.959,0,0,0,0,0,0,0,0,0,0,0,-0.9272,-0.9273,-0.9274,-0.9319,-0.944,-0.9441,-0.9589,-0.95,0,0,0,0,0,0,0,0,0,0,-0.9383,-0.9335,-0.9273,-0.9274,-0.932,-0.944,-0.9441,-0.9496,-0.9506,-0.953,0,-0.9547,0,-0.9571,-0.96,-0.96,0,0,0,-0.9325,-0.9327,-0.9366,-0.9274,-0.9321,-0.944,-0.9387,-0.9501,-0.9512,-0.9542,-0.9549,-0.9555,-0.9573,-0.96,-0.9601,-0.9713,-0.9713,0,0,-0.9318,-0.9291,-0.9358,-0.9373,-0.935,-0.9383,-0.9391,-0.9508,-0.9515,-0.9549,-0.9558,-0.9575,-0.9601,-0.9602,-0.9713,-0.9713,0,0,0,-0.9294,-0.9286,-0.9323,-0.9366,-0.9389,-0.9387,-0.9395,-0.9509,-0.9524,-0.956,-0.9577,-0.9602,-0.9604,-0.9713,-0.9713,-0.9697,0,0,0,-0.9291,-0.9272,-0.9319,-0.9304,-0.9386,-0.945,-0.9394,-0.9515,-0.9529,-0.9576,-0.9602,-0.9605,-0.9712,-0.9713,-0.9697,-0.9694,0,0,0,-0.9267,-0.9269,-0.9284,-0.9302,-0.9353,-0.9449,-0.947,-0.9519,-0.954,-0.96,-0.9606,-0.9712,-0.9713,-0.9697,-0.9694,-0.9715,0,0,0,-0.9234,-0.9269,-0.9283,-0.9329,-0.9352,-0.9437,-0.9469,-0.9535,-0.9584,-0.9603,-0.9712,-0.9713,-0.9696,-0.9694,-0.9715,-0.9728,-0.9731,0,0,-0.9263,-0.9272,-0.9301,-0.9317,-0.9392,-0.942,-0.9495,-0.9567,-0.9599,-0.9674,-0.9677,-0.9697,-0.9694,-0.9715,-0.9756,-0.9758,0,0,0,-0.9301,-0.9322,-0.9347,-0.9392,-0.9447,-0.9495,-0.9559,-0.9586,-0.965,-0.9631,-0.9711,-0.971,-0.9724,-0.9732,-0.9733,-0.9747,-0.9715,-0.9715,-0.9715,-0.9303,-0.934,-0.9392,-0.9444,-0.9487,-0.9552,-0.9592,-0.964,-0.9667,-0.9685,-0.9707,-0.9727,-0.9735,-0.9736,-0.975,-0.9717,-0.9717,-0.9717,-0.9717,-0.9349,-0.9385,-0.9418,-0.9479,-0.9519,-0.9572,-0.9637,-0.9654,-0.971,-0.9713,-0.9727,-0.9727,-0.9737,-0.9751,-0.9716,-0.9716,-0.9716,-0.9717,-0.9717,-0.9356,-0.9379,-0.941,-0.9479,-0.9528,-0.9581,-0.9633,-0.9668,-0.9702,-0.9716,-0.9744,-0.9745,-0.975,-0.9727,-0.9727,-0.9727,-0.9727,-0.9727,-0.9727,-0.935,-0.9385,-0.9423,-0.9484,-0.9518,-0.9567,-0.9633,-0.9668,-0.9716,-0.9738,-0.9739,-0.9764,-0.973,-0.9721,-0.9728,-0.9728,-0.9728,-0.9728,-0.9728,-0.9383,-0.9381,-0.944,-0.9474,-0.9549,-0.9596,-0.964,-0.9708,-0.9742,-0.9767,-0.979,-0.9759,-0.9771,-0.977,-0.9763,-0.978,-0.978,-0.978,-0.978,-0.9389,-0.9398,-0.9466,-0.9517,-0.9572,-0.9617,-0.9685,-0.9738,-0.9792,-0.9816,-0.9819,-0.9812,-0.981,-0.9823,-0.9821,-0.9815,-0.9846,-0.9846,-0.9846,-0.9412,-0.9428,-0.9477,-0.9528,-0.9589,-0.9642,-0.9707,-0.9767,-0.9828,-0.9849,-0.9836,-0.9833,-0.9823,-0.9818,-0.9839,-0.9834,-0.9824,0,0]},{"header":{"parameterUnit":"m.s-1","parameterCategory":1,"la1":30.2992,"la2":30.254,"lo1":-89.0895,"lo2":-89.0443,"dy":0.0025,"dx":0.0025,"nx":19,"ny":19,"refTime":"2026-05-03T09:00:00:Z","depth":0,"parameterNumber":3,"parameterNumberName":"V-component_of_WINDS"},"data":[0,0,0,5.3244,5.3248,5.3392,5.3392,5.3581,5.3583,0,0,0,0,0,0,0,0,0,0,0,5.3209,5.3211,5.3244,5.3248,5.3392,5.3392,5.3581,5.3583,0,0,0,0,0,0,0,0,0,0,0,5.3208,5.321,5.3212,5.3249,5.3392,5.3392,5.3581,5.3469,0,0,0,0,0,0,0,0,0,0,5.3328,5.3304,5.321,5.3212,5.3249,5.3392,5.3392,5.3464,5.3476,5.3519,0,5.3564,0,5.3577,5.3596,5.3597,0,0,0,5.3242,5.3294,5.3326,5.3213,5.3251,5.3391,5.3325,5.3471,5.3485,5.3536,5.3566,5.3573,5.358,5.3598,5.3599,5.3875,5.3876,0,0,5.3234,5.3238,5.3316,5.3336,5.3318,5.3321,5.333,5.3479,5.3511,5.3567,5.3577,5.3583,5.3599,5.3601,5.3873,5.3875,0,0,0,5.3215,5.3233,5.3261,5.3328,5.3354,5.3325,5.3335,5.3504,5.3513,5.3579,5.3585,5.36,5.3603,5.3872,5.3874,5.3955,0,0,0,5.321,5.3222,5.3258,5.3262,5.3351,5.3432,5.3357,5.3503,5.352,5.3584,5.36,5.3605,5.387,5.3873,5.3949,5.3991,0,0,0,5.3197,5.322,5.3244,5.3262,5.3325,5.3429,5.3447,5.3506,5.3524,5.3597,5.3605,5.3869,5.3872,5.3944,5.3983,5.4062,0,0,0,5.3184,5.3316,5.3246,5.3394,5.3324,5.348,5.3446,5.3562,5.3635,5.3601,5.387,5.3874,5.3942,5.3977,5.4057,5.4128,5.4159,0,0,5.3352,5.3336,5.3423,5.3364,5.3534,5.3458,5.3638,5.37,5.3702,5.3816,5.3823,5.3951,5.3982,5.4061,5.4338,5.4363,0,0,0,5.3477,5.3539,5.3583,5.3654,5.3706,5.3751,5.3785,5.3807,5.3904,5.3763,5.4003,5.4021,5.4067,5.41,5.4122,5.4158,5.3891,5.389,5.389,5.3721,5.3716,5.3858,5.387,5.3939,5.3971,5.4024,5.4059,5.4036,5.4092,5.4125,5.4294,5.4333,5.4349,5.4388,5.4165,5.4165,5.4166,5.4166,5.3963,5.4048,5.4013,5.4137,5.413,5.4233,5.4267,5.4246,5.4338,5.427,5.431,5.4232,5.4377,5.441,5.4172,5.4171,5.417,5.4169,5.4169,5.4119,5.4159,5.4185,5.4283,5.4358,5.4365,5.4454,5.4445,5.4437,5.4477,5.4508,5.4506,5.45,5.4493,5.4494,5.4494,5.4495,5.4495,5.4495,5.427,5.4296,5.4374,5.4437,5.4478,5.4531,5.4563,5.4602,5.4643,5.4628,5.4629,5.4596,5.4394,5.434,5.4504,5.4503,5.4502,5.4501,5.45,5.4512,5.4455,5.4575,5.4616,5.4686,5.4759,5.4746,5.4826,5.4857,5.49,5.4859,5.4712,5.4694,5.4677,5.4633,5.4863,5.4863,5.4863,5.4863,5.4641,5.4631,5.4749,5.4815,5.4878,5.4878,5.5007,5.5031,5.5047,5.5064,5.503,5.4972,5.4955,5.4947,5.4924,5.4882,5.517,5.5171,5.5171,5.4787,5.4782,5.4896,5.4912,5.4965,5.501,5.513,5.5203,5.5209,5.5183,5.5076,5.5064,5.4969,5.494,5.491,5.4875,5.4798,0,0]}]]